[[{"header":{"parameterUnit":"m.s-1","parameterCategory":1,"la1":30.2991,"la2":30.254,"lo1":-89.0895,"lo2":-89.0444,"dy":0.0017,"dx":0.0017,"nx":28,"ny":28,"refTime":"2024-08-14T09:00:00:Z","depth":0,"parameterNumber":2,"parameterNumberName":"U-component_of_WINDS"},"data":[0,0,0,0,0,0,0,0,0,0,0,0,0,0,0,0,0,0,0,0,0,0,0,0,0,0,0,0,0,0,0,0,0,0,0,0,0,0,0,0,0,0,0,0,0,0,0,0,0,0,0,0,0,0,0,0,0,0,1.3786,1.3786,0,1.3838,1.3839,1.3839,1.3807,1.3806,1.3804,1.3803,1.3856,1.3858,1.3861,0,0,0,0,0,0,0,0,0,0,0,0,0,1.3657,1.3659,1.3786,1.3787,1.3787,1.3838,1.3839,1.3839,1.3807,1.3806,1.3804,1.3802,1.3855,1.3858,1.3862,0,0,0,0,0,0,0,0,0,0,0,0,0,1.3711,1.366,1.3786,1.3777,1.3777,1.3838,1.3839,1.384,1.3808,1.3805,1.3803,1.3801,1.3854,1.3858,1.3862,1.3934,0,0,1.3875,1.3877,0,0,0,0,0,0,0,0,1.3708,1.3716,1.3778,1.3778,1.3778,1.3814,1.3813,1.3871,1.3808,1.3796,1.3803,1.38,1.3844,1.3849,1.3863,1.3936,1.3939,1.3875,1.3878,1.388,1.3881,0,0,0,0,0,0,0,1.3705,1.3714,1.3806,1.3779,1.3779,1.377,1.3776,1.3824,1.3832,1.3797,1.3795,1.3801,1.3843,1.3859,1.3864,1.3939,1.3875,1.3879,1.3882,1.3883,1.4072,1.4075,0,0,0,0,0,0,1.3702,1.3711,1.3805,1.3808,1.3737,1.3775,1.378,1.3805,1.3831,1.3833,1.3803,1.38,1.3853,1.3859,1.3866,1.395,1.388,1.3884,1.3886,1.407,1.4073,1.4075,0,0,0,0,0,0,1.3699,1.371,1.3803,1.3759,1.377,1.3779,1.3807,1.3807,1.3823,1.3836,1.3837,1.3818,1.3852,1.386,1.3917,1.3952,1.3886,1.3889,1.4067,1.4071,1.4074,1.4121,0,0,0,0,0,0,1.3695,1.371,1.3737,1.376,1.3772,1.3853,1.3809,1.3809,1.383,1.3826,1.3851,1.3852,1.385,1.3911,1.3921,1.3957,1.3893,1.4064,1.4069,1.4073,1.4116,1.4126,1.4134,0,0,0,0,0,1.3691,1.3749,1.3739,1.375,1.3807,1.3855,1.3862,1.3859,1.3833,1.3861,1.3869,1.3852,1.3947,1.3917,1.3928,1.3965,1.4061,1.4067,1.4073,1.4112,1.4124,1.4134,0,0,0,0,0,0,1.373,1.3751,1.3741,1.3808,1.383,1.385,1.3884,1.3872,1.3902,1.3896,1.3891,1.3897,1.3956,1.3966,1.3933,1.4036,1.4,1.4008,1.4026,1.4037,1.4046,1.4041,1.3896,0,0,0,0,0,1.3747,1.3784,1.3801,1.3858,1.387,1.3875,1.3896,1.3892,1.3914,1.3923,1.3936,1.3958,1.3993,1.4016,1.4049,1.4118,1.4122,1.4149,1.4158,1.4165,1.4172,1.4207,1.4219,1.4094,1.4094,1.4094,0,0,1.3781,1.3797,1.3821,1.3866,1.3883,1.3921,1.3883,1.3926,1.3954,1.393,1.3983,1.3994,1.4018,1.4081,1.4109,1.4092,1.4207,1.4172,1.4178,1.4181,1.4214,1.4226,1.4237,1.4097,1.4097,1.4096,0,0,1.3862,1.3879,1.3928,1.3946,1.3971,1.3974,1.3986,1.4008,1.4014,1.4068,1.405,1.4083,1.4144,1.4161,1.4178,1.4266,1.425,1.4277,1.4322,1.4357,1.4367,1.4376,1.4405,1.4416,1.4284,1.4284,1.4284,0,1.3902,1.3959,1.3955,1.3998,1.4018,1.3998,1.4047,1.4064,1.4099,1.4112,1.4093,1.4167,1.4182,1.4248,1.4269,1.4284,1.4296,1.4273,1.4366,1.4375,1.4383,1.4411,1.4422,1.4287,1.4286,1.4286,1.4286,0,1.4005,1.4045,1.4081,1.4115,1.4139,1.4185,1.4187,1.4212,1.4205,1.421,1.4265,1.4283,1.4318,1.4333,1.4328,1.4398,1.4386,1.4367,1.433,1.4397,1.4424,1.4435,1.4291,1.429,1.4289,1.4288,0,0,1.4112,1.4143,1.4156,1.4171,1.4197,1.4228,1.4272,1.4307,1.4327,1.4352,1.4388,1.444,1.4421,1.444,1.4436,1.4467,1.4533,1.4443,1.4444,1.4458,1.461,1.4623,1.4636,1.4523,1.4526,1.4527,1.4607,0,1.4194,1.4272,1.4269,1.4341,1.4377,1.4359,1.4397,1.4417,1.4423,1.4454,1.4461,1.4496,1.447,1.4481,1.4511,1.4519,1.4563,1.4513,1.4556,1.4557,1.4549,1.465,1.4665,1.4739,1.4618,1.4619,1.4621,0,1.4299,1.4327,1.4403,1.4423,1.4438,1.4473,1.4504,1.4534,1.4556,1.4558,1.4579,1.457,1.4614,1.4578,1.4638,1.4604,1.4621,1.4628,1.4631,1.4633,1.4592,1.4654,1.4763,1.4774,1.4637,1.4636,1.4635,0,1.4368,1.4424,1.4477,1.449,1.4515,1.454,1.4551,1.4571,1.4592,1.4619,1.4632,1.4664,1.4681,1.4705,1.4704,1.4678,1.4765,1.4729,1.4766,1.4766,1.4784,1.4783,1.4896,1.4798,1.4798,1.4798,1.4798,0,1.4458,1.4505,1.4507,1.4539,1.4591,1.4587,1.4638,1.4647,1.4665,1.4697,1.4684,1.4715,1.4713,1.4744,1.4744,1.4793,1.4801,1.4803,1.4802,1.4803,1.4803,1.4813,1.4807,1.4801,1.48,1.48,1.4799,0,1.4542,1.4546,1.4602,1.4621,1.4627,1.4664,1.468,1.471,1.4715,1.4756,1.4766,1.4773,1.4809,1.4811,1.4853,1.4852,1.4911,1.4905,1.4903,1.4902,1.4939,1.4934,1.5062,1.5077,1.4971,1.4972,1.4973,0,1.4599,1.4634,1.4657,1.4678,1.4691,1.4726,1.4746,1.4744,1.4766,1.4793,1.482,1.4854,1.4881,1.494,1.4948,1.498,1.4973,1.5016,1.4978,1.4977,1.4972,1.4969,1.4972,1.5023,1.5024,1.5025,1.5026,0,1.4698,1.4698,1.4729,1.476,1.4785,1.4809,1.4832,1.485,1.485,1.4875,1.4912,1.4933,1.4975,1.5009,1.5039,1.5051,1.5038,1.5038,1.5048,1.5048,1.5045,1.5045,1.4921,1.5034,1.5033,1.5033,1.5032,1.5032,1.4769,1.4799,1.482,1.4854,1.4871,1.4892,1.492,1.4929,1.4959,1.4993,1.499,1.503,1.505,1.509,1.5103,1.5134,1.5119,1.5134,1.5138,1.5141,1.5144,1.5042,1.514,1.514,1.5139,1.5139,1.5139,0,1.4866,1.4878,1.491,1.4942,1.4968,1.4955,1.4979,1.5002,1.5037,1.5057,1.5084,1.5125,1.5158,1.5169,1.5201,1.5223,1.5218,1.5231,1.5229,1.5231,1.5156,1.5144,1.5235,1.5235,1.5235,1.5235,1.5235,1.5235,1.492,1.4969,1.4971,1.5029,1.504,1.508,1.5094,1.5113,1.5129,1.5176,1.5203,1.521,1.5226,1.5259,1.5288,1.529,1.5302,1.5317,1.5317,1.5246,1.5237,1.5227,1.5215,1.532,1.532,1.5389,1.539,1.539]},{"header":{"parameterUnit":"m.s-1","parameterCategory":1,"la1":30.2991,"la2":30.254,"lo1":-89.0895,"lo2":-89.0444,"dy":0.0017,"dx":0.0017,"nx":28,"ny":28,"refTime":"2024-08-14T09:00:00:Z","depth":0,"parameterNumber":3,"parameterNumberName":"V-component_of_WINDS"},"data":[0,0,0,0,0,0,0,0,0,0,0,0,0,0,0,0,0,0,0,0,0,0,0,0,0,0,0,0,0,0,0,0,0,0,0,0,0,0,0,0,0,0,0,0,0,0,0,0,0,0,0,0,0,0,0,0,0,0,3.6595,3.6594,0,3.6544,3.6543,3.6543,3.6448,3.6446,3.6444,3.6443,3.6392,3.6392,3.6392,0,0,0,0,0,0,0,0,0,0,0,0,0,3.6611,3.6612,3.6595,3.6594,3.6593,3.6544,3.6543,3.6542,3.6448,3.6446,3.6444,3.6442,3.6392,3.6392,3.6392,0,0,0,0,0,0,0,0,0,0,0,0,0,3.6587,3.6612,3.6595,3.6541,3.6535,3.6544,3.6543,3.6542,3.6449,3.6446,3.6443,3.6441,3.6392,3.6392,3.6393,3.645,0,0,3.6394,3.6394,0,0,0,0,0,0,0,0,3.6588,3.6586,3.6549,3.6544,3.6538,3.6499,3.653,3.6511,3.645,3.6482,3.6443,3.644,3.643,3.6427,3.6424,3.6448,3.6446,3.6394,3.6394,3.6395,3.6395,0,0,0,0,0,0,0,3.659,3.6588,3.6574,3.6549,3.6542,3.6519,3.6512,3.6526,3.6472,3.6479,3.6472,3.6467,3.6426,3.6423,3.6422,3.6445,3.6394,3.6395,3.6395,3.6395,3.6513,3.6515,0,0,0,0,0,0,3.66,3.659,3.6576,3.6573,3.6557,3.6521,3.6514,3.6515,3.6471,3.6462,3.6469,3.6463,3.6424,3.6421,3.642,3.6482,3.6395,3.6395,3.6395,3.651,3.6513,3.6516,0,0,0,0,0,0,3.66,3.6599,3.6578,3.658,3.6575,3.6524,3.6526,3.6515,3.6512,3.6464,3.6454,3.6476,3.6421,3.6419,3.6443,3.6479,3.6395,3.6396,3.6507,3.6511,3.6515,3.661,0,0,0,0,0,0,3.6601,3.66,3.6621,3.6581,3.6575,3.6603,3.6528,3.6516,3.6513,3.6504,3.6468,3.6459,3.6419,3.6443,3.6443,3.6479,3.6396,3.6503,3.6508,3.6513,3.6604,3.6617,3.6629,0,0,0,0,0,3.6602,3.6651,3.6623,3.6622,3.6601,3.6605,3.6602,3.6554,3.6516,3.6537,3.6506,3.646,3.6476,3.6446,3.6446,3.6482,3.65,3.6507,3.6513,3.6598,3.6615,3.6629,0,0,0,0,0,0,3.6698,3.6645,3.6613,3.665,3.6633,3.6589,3.6614,3.6574,3.6567,3.6559,3.65,3.6493,3.6524,3.6506,3.6473,3.6535,3.6481,3.6488,3.6545,3.6561,3.6573,3.6576,3.6397,0,0,0,0,0,3.6723,3.6731,3.6684,3.6721,3.6714,3.6666,3.6666,3.6631,3.661,3.6602,3.6574,3.6556,3.6556,3.6558,3.6556,3.6601,3.6591,3.6626,3.6639,3.6649,3.6655,3.6676,3.669,3.6537,3.6537,3.6537,0,0,3.6776,3.6748,3.6756,3.674,3.6722,3.6731,3.666,3.6673,3.6678,3.6604,3.6624,3.6603,3.658,3.6614,3.6628,3.6599,3.6696,3.6658,3.6666,3.6666,3.6684,3.6698,3.6711,3.6541,3.6541,3.654,0,0,3.6875,3.6855,3.6883,3.6867,3.6841,3.6808,3.6815,3.6778,3.676,3.678,3.6724,3.673,3.6733,3.6718,3.6711,3.6805,3.6761,3.6806,3.6871,3.6892,3.6904,3.6914,3.6946,3.6958,3.6812,3.6812,3.6813,0,3.6943,3.6954,3.6903,3.6918,3.6912,3.6846,3.6873,3.686,3.6835,3.6833,3.6802,3.6802,3.6782,3.6811,3.6834,3.6831,3.6836,3.6808,3.6906,3.6916,3.6925,3.6954,3.6967,3.6818,3.6817,3.6817,3.6816,0,3.7038,3.7047,3.7073,3.7049,3.7046,3.7068,3.702,3.7024,3.6989,3.696,3.698,3.6954,3.6944,3.6949,3.6916,3.6973,3.6956,3.6917,3.6861,3.6946,3.6972,3.6983,3.6826,3.6824,3.6822,3.6821,0,0,3.7195,3.7143,3.7153,3.7141,3.7108,3.7113,3.7132,3.7122,3.7126,3.7111,3.7124,3.7128,3.7091,3.7083,3.7048,3.7067,3.714,3.7024,3.7023,3.7045,3.7199,3.7227,3.7241,3.7112,3.7114,3.7116,3.72,0,3.7285,3.7313,3.7268,3.7306,3.7313,3.725,3.7266,3.7247,3.7221,3.7223,3.7193,3.7196,3.7148,3.7142,3.7158,3.7128,3.717,3.7121,3.7123,3.7123,3.7128,3.7255,3.7285,3.7366,3.7211,3.7212,3.7214,0,3.7394,3.7384,3.7423,3.7386,3.7387,3.7402,3.7389,3.7392,3.7369,3.7349,3.734,3.7298,3.7313,3.7261,3.728,3.7248,3.7246,3.7232,3.7234,3.723,3.7172,3.7253,3.7391,3.7403,3.723,3.7229,3.7227,0,3.7502,3.7498,3.752,3.7512,3.7471,3.7482,3.7466,3.744,3.7437,3.7426,3.7423,3.7415,3.741,3.7404,3.7361,3.7327,3.7385,3.7329,3.7367,3.7368,3.738,3.738,3.7518,3.7383,3.7383,3.7383,3.7383,0,3.7606,3.7632,3.7568,3.7581,3.7608,3.7556,3.7584,3.7561,3.7539,3.7547,3.7493,3.7502,3.7445,3.7447,3.7414,3.7434,3.7433,3.7415,3.7406,3.7419,3.7421,3.7415,3.7408,3.7386,3.7385,3.7385,3.7384,0,3.7729,3.7688,3.7708,3.7667,3.7657,3.7679,3.7643,3.7654,3.7624,3.7635,3.7634,3.7588,3.7587,3.7544,3.7535,3.7512,3.7546,3.7527,3.7553,3.7546,3.7585,3.7581,3.7723,3.7738,3.7596,3.7598,3.7599,0,3.7797,3.7816,3.7776,3.7777,3.7763,3.7766,3.7762,3.7712,3.7711,3.7686,3.7699,3.7695,3.7688,3.769,3.7655,3.7648,3.7627,3.7677,3.7626,3.7638,3.7625,3.7624,3.7624,3.7688,3.7689,3.7691,3.7692,0,3.7922,3.79,3.7897,3.7887,3.7884,3.7873,3.7859,3.7863,3.7808,3.7809,3.7808,3.7803,3.7793,3.7788,3.7774,3.7757,3.7715,3.7709,3.7717,3.7729,3.7743,3.7734,3.758,3.7705,3.7704,3.7703,3.7702,3.7702,3.8018,3.8031,3.8005,3.8003,3.7987,3.7975,3.7982,3.7954,3.7952,3.7939,3.7911,3.7914,3.789,3.7867,3.7853,3.7854,3.7829,3.7841,3.7843,3.7846,3.7853,3.7745,3.7852,3.7851,3.7851,3.785,3.785,0,3.8138,3.8118,3.8117,3.8098,3.8097,3.8058,3.8041,3.8041,3.8045,3.8026,3.8021,3.8019,3.8014,3.7979,3.797,3.7978,3.7958,3.7977,3.7974,3.7971,3.7877,3.787,3.7992,3.7992,3.7992,3.7992,3.7992,3.7992,3.82,3.8218,3.8194,3.8204,3.8184,3.8187,3.818,3.8168,3.8153,3.8153,3.8148,3.8126,3.81,3.8089,3.8082,3.8072,3.807,3.8095,3.8078,3.7991,3.7977,3.7964,3.7957,3.8096,3.8096,3.8171,3.8172,3.8172]}]]